Time,TemperatureF,DewpointF,PressureIn,WindDirection,WindDirectionDegrees,WindSpeedMPH,WindSpeedGustMPH,Humidity,HourlyPrecipIn,Conditions,Clouds,dailyrainin,SoftwareType,DateUTC
2013-12-11 00:01:00,30.1,23.4,30.18,ENE,68,0.0,0.2,76,0.00,,,0.00,WUHU216HW,2013-12-11 08:01:00,
2013-12-11 00:06:00,29.9,23.2,30.18,NNE,23,0.0,0.2,76,0.00,,,0.00,WUHU216HW,2013-12-11 08:06:00,
2013-12-11 00:11:00,29.9,23.2,30.18,NNE,23,0.0,0.2,76,0.00,,,0.00,WUHU216HW,2013-12-11 08:11:00,
2013-12-11 00:16:00,29.9,23.2,30.18,NNE,23,0.0,0.0,76,0.00,,,0.00,WUHU216HW,2013-12-11 08:16:00,
2013-12-11 00:21:00,29.9,22.9,30.18,NNE,23,0.0,0.0,75,0.00,,,0.00,WUHU216HW,2013-12-11 08:21:00,
2013-12-11 00:26:00,29.9,23.2,30.17,NNE,23,0.0,0.0,76,0.00,,,0.00,WUHU216HW,2013-12-11 08:26:00,
2013-12-11 00:31:00,29.7,23.1,30.18,NNE,23,0.0,0.0,76,0.00,,,0.00,WUHU216HW,2013-12-11 08:31:00,
2013-12-11 00:36:00,29.7,23.1,30.17,NNE,23,0.0,0.0,76,0.00,,,0.00,WUHU216HW,2013-12-11 08:36:00,
2013-12-11 00:41:00,29.7,23.3,30.17,NNE,23,0.0,0.0,77,0.00,,,0.00,WUHU216HW,2013-12-11 08:41:00,
2013-12-11 00:46:00,29.9,23.2,30.17,NNE,23,0.0,0.0,76,0.00,,,0.00,WUHU216HW,2013-12-11 08:46:00,
2013-12-11 00:51:00,29.9,23.2,30.17,East,90,0.2,0.2,76,0.00,,,0.00,WUHU216HW,2013-12-11 08:51:00,
2013-12-11 00:56:00,29.9,23.5,30.17,ENE,68,0.0,0.2,77,0.00,,,0.00,WUHU216HW,2013-12-11 08:56:00,
2013-12-11 01:01:00,29.9,23.5,30.17,ENE,68,0.0,0.0,77,0.00,,,0.00,WUHU216HW,2013-12-11 09:01:00,
2013-12-11 01:06:00,29.9,23.9,30.17,ENE,68,0.0,0.0,78,0.00,,,0.00,WUHU216HW,2013-12-11 09:06:00,
2013-12-11 01:11:00,29.9,23.9,30.17,ENE,68,0.0,0.0,78,0.00,,,0.00,WUHU216HW,2013-12-11 09:11:00,
2013-12-11 01:16:00,30.1,24.0,30.17,ENE,68,0.0,0.0,78,0.00,,,0.00,WUHU216HW,2013-12-11 09:16:00,
2013-12-11 01:21:00,30.1,24.0,30.17,ENE,68,0.0,0.0,78,0.00,,,0.00,WUHU216HW,2013-12-11 09:21:00,
2013-12-11 01:26:00,30.1,24.0,30.17,ENE,68,0.0,0.0,78,0.00,,,0.00,WUHU216HW,2013-12-11 09:26:00,
2013-12-11 01:31:00,30.1,24.0,30.17,ENE,68,0.0,0.0,78,0.00,,,0.00,WUHU216HW,2013-12-11 09:31:00,
2013-12-11 01:36:00,29.9,23.9,30.17,ENE,68,0.0,0.0,78,0.00,,,0.00,WUHU216HW,2013-12-11 09:36:00,
2013-12-11 01:41:00,29.9,23.5,30.17,ENE,68,0.0,0.0,77,0.00,,,0.00,WUHU216HW,2013-12-11 09:41:00,
2013-12-11 01:46:00,29.9,23.9,30.17,ENE,68,0.0,0.0,78,0.00,,,0.00,WUHU216HW,2013-12-11 09:46:00,
2013-12-11 01:51:00,29.7,23.7,30.17,ENE,68,0.0,0.0,78,0.00,,,0.00,WUHU216HW,2013-12-11 09:51:00,
2013-12-11 01:56:00,29.5,23.1,30.17,ENE,68,0.0,0.0,77,0.00,,,0.00,WUHU216HW,2013-12-11 09:56:00,
2013-12-11 02:01:00,29.5,23.5,30.17,ENE,68,0.0,0.0,78,0.00,,,0.00,WUHU216HW,2013-12-11 10:01:00,
2013-12-11 02:06:00,29.3,23.3,30.17,ENE,68,0.0,0.0,78,0.00,,,0.00,WUHU216HW,2013-12-11 10:06:00,
2013-12-11 02:11:00,29.2,23.1,30.17,ENE,68,0.0,0.0,78,0.00,,,0.00,WUHU216HW,2013-12-11 10:11:00,
2013-12-11 02:16:00,29.2,23.1,30.17,NE,45,0.0,0.0,78,0.00,,,0.00,WUHU216HW,2013-12-11 10:16:00,
2013-12-11 02:21:00,29.2,23.1,30.17,NNE,23,0.0,0.0,78,0.00,,,0.00,WUHU216HW,2013-12-11 10:21:00,
2013-12-11 02:26:00,29.0,23.0,30.17,East,90,0.0,0.2,78,0.00,,,0.00,WUHU216HW,2013-12-11 10:26:00,
2013-12-11 02:31:00,28.8,23.1,30.17,East,90,0.0,0.2,79,0.00,,,0.00,WUHU216HW,2013-12-11 10:31:00,
2013-12-11 02:36:00,28.8,23.1,30.17,NE,45,0.0,0.0,79,0.00,,,0.00,WUHU216HW,2013-12-11 10:36:00,
2013-12-11 02:41:00,28.6,23.0,30.17,ENE,68,0.0,0.0,79,0.00,,,0.00,WUHU216HW,2013-12-11 10:41:00,
2013-12-11 02:46:00,28.6,23.0,30.17,East,90,0.0,0.0,79,0.00,,,0.00,WUHU216HW,2013-12-11 10:46:00,
2013-12-11 02:51:00,28.6,23.0,30.17,East,90,0.0,0.0,79,0.00,,,0.00,WUHU216HW,2013-12-11 10:51:00,
2013-12-11 02:56:00,28.4,22.8,30.17,East,90,0.0,0.0,79,0.00,,,0.00,WUHU216HW,2013-12-11 10:56:00,
2013-12-11 03:01:00,28.4,22.8,30.17,East,90,0.0,0.0,79,0.00,,,0.00,WUHU216HW,2013-12-11 11:01:00,
2013-12-11 03:06:00,28.4,22.8,30.17,NNW,338,0.0,0.0,79,0.00,,,0.00,WUHU216HW,2013-12-11 11:06:00,
2013-12-11 03:11:00,28.3,22.6,30.17,ENE,68,0.2,0.2,79,0.00,,,0.00,WUHU216HW,2013-12-11 11:11:00,
2013-12-11 03:16:00,28.3,22.6,30.17,East,90,0.0,0.2,79,0.00,,,0.00,WUHU216HW,2013-12-11 11:16:00,
2013-12-11 03:21:00,28.1,22.4,30.17,East,90,0.0,0.2,79,0.00,,,0.00,WUHU216HW,2013-12-11 11:21:00,
2013-12-11 03:26:00,28.1,22.4,30.17,NE,45,0.0,0.0,79,0.00,,,0.00,WUHU216HW,2013-12-11 11:26:00,
2013-12-11 03:31:00,27.9,22.2,30.17,NE,45,0.0,0.0,79,0.00,,,0.00,WUHU216HW,2013-12-11 11:31:00,
2013-12-11 03:36:00,27.9,22.2,30.17,NE,45,0.0,0.0,79,0.00,,,0.00,WUHU216HW,2013-12-11 11:36:00,
2013-12-11 03:41:00,27.7,22.3,30.17,NE,45,0.0,0.0,80,0.00,,,0.00,WUHU216HW,2013-12-11 11:41:00,
2013-12-11 03:46:00,27.7,22.3,30.17,NE,45,0.0,0.0,80,0.00,,,0.00,WUHU216HW,2013-12-11 11:46:00,
2013-12-11 03:51:00,27.7,22.3,30.17,ENE,68,0.0,0.0,80,0.00,,,0.00,WUHU216HW,2013-12-11 11:51:00,
2013-12-11 03:56:00,27.5,22.1,30.17,ENE,68,0.0,0.0,80,0.00,,,0.00,WUHU216HW,2013-12-11 11:56:00,
2013-12-11 04:01:00,27.5,22.1,30.17,NNE,23,0.0,0.0,80,0.00,,,0.00,WUHU216HW,2013-12-11 12:01:00,
2013-12-11 04:06:00,27.4,22.0,30.17,North,0,0.0,0.0,80,0.00,,,0.00,WUHU216HW,2013-12-11 12:06:00,
2013-12-11 04:11:00,27.4,22.0,30.16,East,90,0.0,0.0,80,0.00,,,0.00,WUHU216HW,2013-12-11 12:11:00,
2013-12-11 04:16:00,27.4,22.2,30.16,NE,45,0.0,0.2,81,0.00,,,0.00,WUHU216HW,2013-12-11 12:16:00,
2013-12-11 04:21:00,27.4,22.2,30.16,NE,45,0.0,0.2,81,0.00,,,0.00,WUHU216HW,2013-12-11 12:21:00,
2013-12-11 04:26:00,27.2,22.1,30.16,NNE,23,0.0,0.0,81,0.00,,,0.00,WUHU216HW,2013-12-11 12:26:00,
2013-12-11 04:31:00,27.2,22.1,30.16,SSE,158,0.2,0.2,81,0.00,,,0.00,WUHU216HW,2013-12-11 12:31:00,
2013-12-11 04:36:00,27.4,22.2,30.16,SSE,158,0.0,0.2,81,0.00,,,0.00,WUHU216HW,2013-12-11 12:36:00,
2013-12-11 04:41:00,27.2,22.1,30.16,WNW,293,0.0,0.2,81,0.00,,,0.00,WUHU216HW,2013-12-11 12:41:00,
2013-12-11 04:46:00,27.2,22.1,30.16,North,0,0.0,0.2,81,0.00,,,0.00,WUHU216HW,2013-12-11 12:46:00,
2013-12-11 04:51:00,27.2,22.1,30.16,North,0,0.0,0.0,81,0.00,,,0.00,WUHU216HW,2013-12-11 12:51:00,
2013-12-11 04:56:00,27.2,22.3,30.16,NNE,23,0.2,0.2,82,0.00,,,0.00,WUHU216HW,2013-12-11 12:56:00,
2013-12-11 05:01:00,27.0,22.1,30.16,North,0,0.0,0.2,82,0.00,,,0.00,WUHU216HW,2013-12-11 13:01:00,
2013-12-11 05:06:00,27.0,21.9,30.16,ENE,68,0.0,0.2,81,0.00,,,0.00,WUHU216HW,2013-12-11 13:06:00,
2013-12-11 05:11:00,27.0,21.9,30.16,ENE,68,0.0,0.0,81,0.00,,,0.00,WUHU216HW,2013-12-11 13:11:00,
2013-12-11 05:16:00,26.8,21.7,30.16,North,0,0.0,0.0,81,0.00,,,0.00,WUHU216HW,2013-12-11 13:16:00,
2013-12-11 05:21:00,26.8,21.7,30.16,North,0,0.0,0.0,81,0.00,,,0.00,WUHU216HW,2013-12-11 13:21:00,
2013-12-11 05:26:00,26.6,21.8,30.16,North,0,0.0,0.0,82,0.00,,,0.00,WUHU216HW,2013-12-11 13:26:00,
2013-12-11 05:31:00,26.6,21.8,30.16,North,0,0.0,0.0,82,0.00,,,0.00,WUHU216HW,2013-12-11 13:31:00,
2013-12-11 05:36:00,26.6,21.8,30.16,NNE,23,0.2,0.2,82,0.00,,,0.00,WUHU216HW,2013-12-11 13:36:00,
2013-12-11 05:41:00,26.6,21.8,30.16,NNE,23,0.0,0.2,82,0.00,,,0.00,WUHU216HW,2013-12-11 13:41:00,
2013-12-11 05:46:00,26.6,21.8,30.15,NNE,23,0.0,0.0,82,0.00,,,0.00,WUHU216HW,2013-12-11 13:46:00,
2013-12-11 05:51:00,26.6,21.8,30.15,North,0,0.0,0.0,82,0.00,,,0.00,WUHU216HW,2013-12-11 13:51:00,
2013-12-11 05:56:00,26.6,21.8,30.16,NNE,23,0.0,0.0,82,0.00,,,0.00,WUHU216HW,2013-12-11 13:56:00,
2013-12-11 06:01:00,26.5,21.7,30.16,NNE,23,0.0,0.2,82,0.00,,,0.00,WUHU216HW,2013-12-11 14:01:00,
2013-12-11 06:06:00,26.5,22.0,30.16,NNE,23,0.0,0.2,83,0.00,,,0.00,WUHU216HW,2013-12-11 14:06:00,
2013-12-11 06:11:00,26.5,22.0,30.16,NNE,23,0.0,0.0,83,0.00,,,0.00,WUHU216HW,2013-12-11 14:11:00,
2013-12-11 06:16:00,26.5,22.0,30.16,North,0,0.0,0.0,83,0.00,,,0.00,WUHU216HW,2013-12-11 14:16:00,
2013-12-11 06:21:00,26.5,22.0,30.16,NNE,23,0.0,0.0,83,0.00,,,0.00,WUHU216HW,2013-12-11 14:21:00,
2013-12-11 06:26:00,26.5,22.0,30.16,NNE,23,0.0,0.0,83,0.00,,,0.00,WUHU216HW,2013-12-11 14:26:00,
2013-12-11 06:31:00,26.5,22.0,30.17,NNE,23,0.0,0.0,83,0.00,,,0.00,WUHU216HW,2013-12-11 14:31:00,
2013-12-11 06:36:00,26.5,22.0,30.17,NNE,23,0.0,0.2,83,0.00,,,0.00,WUHU216HW,2013-12-11 14:36:00,
2013-12-11 06:41:00,26.5,22.0,30.17,North,0,0.0,0.2,83,0.00,,,0.00,WUHU216HW,2013-12-11 14:41:00,
2013-12-11 06:46:00,26.5,22.2,30.17,NNE,23,0.0,0.2,84,0.00,,,0.00,WUHU216HW,2013-12-11 14:46:00,
2013-12-11 06:51:00,26.3,22.1,30.17,NNE,23,0.0,0.2,84,0.00,,,0.00,WUHU216HW,2013-12-11 14:51:00,
2013-12-11 06:56:00,26.3,22.1,30.18,NNE,23,0.0,0.2,84,0.00,,,0.00,WUHU216HW,2013-12-11 14:56:00,
2013-12-11 07:01:00,26.5,22.0,30.18,North,0,0.0,0.2,83,0.00,,,0.00,WUHU216HW,2013-12-11 15:01:00,
2013-12-11 07:06:00,26.3,21.8,30.18,North,0,0.0,0.2,83,0.00,,,0.00,WUHU216HW,2013-12-11 15:06:00,
2013-12-11 07:11:00,26.5,22.0,30.18,North,0,0.0,0.0,83,0.00,,,0.00,WUHU216HW,2013-12-11 15:11:00,
2013-12-11 07:16:00,26.5,22.0,30.18,ENE,68,0.0,0.2,83,0.00,,,0.00,WUHU216HW,2013-12-11 15:16:00,
2013-12-11 07:21:00,26.5,22.0,30.19,ENE,68,0.0,0.2,83,0.00,,,0.00,WUHU216HW,2013-12-11 15:21:00,
2013-12-11 07:26:00,26.5,22.0,30.19,ENE,68,0.0,0.0,83,0.00,,,0.00,WUHU216HW,2013-12-11 15:26:00,
2013-12-11 07:31:00,26.3,22.1,30.19,ENE,68,0.4,0.4,84,0.00,,,0.00,WUHU216HW,2013-12-11 15:31:00,
2013-12-11 07:36:00,26.5,22.2,30.19,ENE,68,0.0,0.4,84,0.00,,,0.00,WUHU216HW,2013-12-11 15:36:00,
2013-12-11 07:41:00,26.5,22.2,30.19,NE,45,0.2,0.2,84,0.00,,,0.00,WUHU216HW,2013-12-11 15:41:00,
2013-12-11 07:46:00,26.6,22.4,30.19,NNW,338,0.0,0.2,84,0.00,,,0.00,WUHU216HW,2013-12-11 15:46:00,
2013-12-11 07:51:00,26.8,22.9,30.19,NNE,23,0.4,0.4,85,0.00,,,0.00,WUHU216HW,2013-12-11 15:51:00,
2013-12-11 07:56:00,27.0,23.0,30.19,North,0,0.0,0.4,85,0.00,,,0.00,WUHU216HW,2013-12-11 15:56:00,
2013-12-11 08:01:00,27.2,23.2,30.19,North,0,0.0,0.0,85,0.00,,,0.00,WUHU216HW,2013-12-11 16:01:00,
2013-12-11 08:06:00,27.4,23.4,30.19,ENE,68,0.0,0.0,85,0.00,,,0.00,WUHU216HW,2013-12-11 16:06:00,
2013-12-11 08:11:00,27.5,23.6,30.19,ENE,68,0.0,0.2,85,0.00,,,0.00,WUHU216HW,2013-12-11 16:11:00,
2013-12-11 08:16:00,27.7,23.8,30.20,WNW,293,0.4,0.4,85,0.00,,,0.00,WUHU216HW,2013-12-11 16:16:00,
2013-12-11 08:21:00,28.4,25.0,30.20,WSW,248,0.7,0.7,87,0.00,,,0.00,WUHU216HW,2013-12-11 16:21:00,
2013-12-11 08:26:00,29.2,25.5,30.20,West,270,0.9,2.2,86,0.00,,,0.00,WUHU216HW,2013-12-11 16:26:00,
2013-12-11 08:31:00,29.9,26.5,30.20,West,270,0.2,2.2,87,0.00,,,0.00,WUHU216HW,2013-12-11 16:31:00,
2013-12-11 08:36:00,30.6,27.6,30.20,WNW,293,1.3,1.8,88,0.00,,,0.00,WUHU216HW,2013-12-11 16:36:00,
2013-12-11 08:41:00,31.3,28.3,30.21,WNW,293,1.3,2.7,88,0.00,,,0.00,WUHU216HW,2013-12-11 16:41:00,
2013-12-11 08:46:00,32.0,29.0,30.21,SW,225,0.0,2.7,88,0.00,,,0.00,WUHU216HW,2013-12-11 16:46:00,
2013-12-11 08:51:00,32.4,29.0,30.21,WNW,293,0.9,2.5,87,0.00,,,0.00,WUHU216HW,2013-12-11 16:51:00,
2013-12-11 08:56:00,33.1,29.6,30.21,West,270,1.1,2.5,87,0.00,,,0.00,WUHU216HW,2013-12-11 16:56:00,
2013-12-11 09:01:00,33.5,29.7,30.21,WNW,293,1.8,2.5,86,0.00,,,0.00,WUHU216HW,2013-12-11 17:01:00,
2013-12-11 09:06:00,34.0,30.2,30.21,WNW,293,2.5,2.5,86,0.00,,,0.00,WUHU216HW,2013-12-11 17:06:00,
2013-12-11 09:11:00,34.6,30.4,30.21,WNW,293,4.3,4.3,85,0.00,,,0.00,WUHU216HW,2013-12-11 17:11:00,
2013-12-11 09:16:00,35.3,30.9,30.21,West,270,2.9,4.3,84,0.00,,,0.00,WUHU216HW,2013-12-11 17:16:00,
2013-12-11 09:21:00,35.6,31.2,30.21,WNW,293,2.5,2.9,84,0.00,,,0.00,WUHU216HW,2013-12-11 17:21:00,
2013-12-11 09:26:00,36.2,31.5,30.21,West,270,3.4,3.4,83,0.00,,,0.00,WUHU216HW,2013-12-11 17:26:00,
2013-12-11 09:31:00,36.4,31.3,30.21,WNW,293,0.7,3.4,82,0.00,,,0.00,WUHU216HW,2013-12-11 17:31:00,
2013-12-11 09:36:00,36.7,31.4,30.21,WSW,248,2.9,2.9,81,0.00,,,0.00,WUHU216HW,2013-12-11 17:36:00,
2013-12-11 09:41:00,37.1,31.5,30.21,WNW,293,0.7,2.9,80,0.00,,,0.00,WUHU216HW,2013-12-11 17:41:00,
2013-12-11 09:46:00,37.4,31.9,30.21,West,270,2.2,2.9,80,0.00,,,0.00,WUHU216HW,2013-12-11 17:46:00,
2013-12-11 09:51:00,37.8,31.9,30.21,NW,315,1.3,2.9,79,0.00,,,0.00,WUHU216HW,2013-12-11 17:51:00,
2013-12-11 09:56:00,38.3,32.1,30.21,West,270,2.0,2.5,78,0.00,,,0.00,WUHU216HW,2013-12-11 17:56:00,
2013-12-11 10:01:00,38.9,32.3,30.21,West,270,0.4,2.5,77,0.00,,,0.00,WUHU216HW,2013-12-11 18:01:00,
2013-12-11 10:06:00,39.2,32.7,30.21,NW,315,0.2,2.0,77,0.00,,,0.00,WUHU216HW,2013-12-11 18:06:00,
2013-12-11 10:11:00,39.6,32.7,30.21,WNW,293,0.7,1.1,76,0.00,,,0.00,WUHU216HW,2013-12-11 18:11:00,
2013-12-11 10:16:00,40.0,32.7,30.21,South,180,0.2,0.9,75,0.00,,,0.00,WUHU216HW,2013-12-11 18:16:00,
2013-12-11 10:21:00,40.5,32.9,30.21,SSW,203,0.4,0.7,74,0.00,,,0.00,WUHU216HW,2013-12-11 18:21:00,
2013-12-11 10:26:00,41.0,32.7,30.21,SSE,158,1.1,1.6,72,0.00,,,0.00,WUHU216HW,2013-12-11 18:26:00,
2013-12-11 10:31:00,41.6,32.6,30.21,SSE,158,1.8,1.8,70,0.00,,,0.00,WUHU216HW,2013-12-11 18:31:00,
2013-12-11 10:36:00,42.3,33.3,30.21,South,180,0.4,2.0,70,0.00,,,0.00,WUHU216HW,2013-12-11 18:36:00,
2013-12-11 10:41:00,42.8,33.5,30.21,SSE,158,1.1,2.0,69,0.00,,,0.00,WUHU216HW,2013-12-11 18:41:00,
2013-12-11 10:46:00,43.2,33.4,30.21,West,270,1.6,1.6,68,0.00,,,0.00,WUHU216HW,2013-12-11 18:46:00,
2013-12-11 10:51:00,43.6,33.3,30.21,WSW,248,1.3,1.6,67,0.00,,,0.00,WUHU216HW,2013-12-11 18:51:00,
2013-12-11 10:56:00,43.9,34.0,30.21,SE,135,0.4,1.3,68,0.00,,,0.00,WUHU216HW,2013-12-11 18:56:00,
2013-12-11 11:01:00,44.5,34.2,30.20,SSW,203,0.4,2.0,67,0.00,,,0.00,WUHU216HW,2013-12-11 19:01:00,
2013-12-11 11:06:00,44.8,32.9,30.20,West,270,0.4,2.0,63,0.00,,,0.00,WUHU216HW,2013-12-11 19:06:00,
2013-12-11 11:11:00,45.2,33.0,30.20,SSW,203,1.8,1.8,62,0.00,,,0.00,WUHU216HW,2013-12-11 19:11:00,
2013-12-11 11:16:00,45.7,32.7,30.20,SE,135,0.4,1.8,60,0.00,,,0.00,WUHU216HW,2013-12-11 19:16:00,
2013-12-11 11:21:00,45.9,32.9,30.19,SW,225,0.0,1.1,60,0.00,,,0.00,WUHU216HW,2013-12-11 19:21:00,
2013-12-11 11:26:00,46.3,33.6,30.19,South,180,1.1,1.1,61,0.00,,,0.00,WUHU216HW,2013-12-11 19:26:00,
2013-12-11 11:31:00,46.6,33.5,30.19,SSE,158,0.9,1.1,60,0.00,,,0.00,WUHU216HW,2013-12-11 19:31:00,
2013-12-11 11:36:00,47.2,34.0,30.18,NE,45,0.0,1.1,60,0.00,,,0.00,WUHU216HW,2013-12-11 19:36:00,
2013-12-11 11:41:00,47.5,33.9,30.18,WNW,293,0.9,1.6,59,0.00,,,0.00,WUHU216HW,2013-12-11 19:41:00,
2013-12-11 11:46:00,47.9,34.3,30.18,NNE,23,0.7,1.6,59,0.00,,,0.00,WUHU216HW,2013-12-11 19:46:00,
2013-12-11 11:51:00,48.2,34.2,30.18,WSW,248,3.4,3.4,58,0.00,,,0.00,WUHU216HW,2013-12-11 19:51:00,
2013-12-11 11:56:00,48.6,34.0,30.17,NNE,23,0.9,3.4,57,0.00,,,0.00,WUHU216HW,2013-12-11 19:56:00,
2013-12-11 12:01:00,49.0,33.9,30.17,WSW,248,0.9,1.8,56,0.00,,,0.00,WUHU216HW,2013-12-11 20:01:00,
2013-12-11 12:06:00,49.3,34.2,30.16,WSW,248,0.7,1.8,56,0.00,,,0.00,WUHU216HW,2013-12-11 20:06:00,
2013-12-11 12:11:00,49.9,33.8,30.16,SW,225,0.9,1.8,54,0.00,,,0.00,WUHU216HW,2013-12-11 20:11:00,
2013-12-11 12:16:00,50.4,33.5,30.15,West,270,1.8,1.8,52,0.00,,,0.00,WUHU216HW,2013-12-11 20:16:00,
2013-12-11 12:21:00,50.8,33.8,30.15,WNW,293,2.2,2.5,52,0.00,,,0.00,WUHU216HW,2013-12-11 20:21:00,
2013-12-11 12:26:00,51.1,33.7,30.15,East,90,0.4,2.5,51,0.00,,,0.00,WUHU216HW,2013-12-11 20:26:00,
2013-12-11 12:31:00,51.5,33.5,30.16,NNW,338,0.4,1.8,50,0.00,,,0.00,WUHU216HW,2013-12-11 20:31:00,
2013-12-11 12:36:00,51.8,33.3,30.16,NE,45,0.9,1.1,49,0.00,,,0.00,WUHU216HW,2013-12-11 20:36:00,
2013-12-11 12:41:00,52.0,33.5,30.16,SSW,203,1.8,2.5,49,0.00,,,0.00,WUHU216HW,2013-12-11 20:41:00,
2013-12-11 12:46:00,52.4,33.8,30.16,SW,225,2.0,2.5,49,0.00,,,0.00,WUHU216HW,2013-12-11 20:46:00,
2013-12-11 12:51:00,52.9,33.7,30.15,SW,225,2.0,2.5,48,0.00,,,0.00,WUHU216HW,2013-12-11 20:51:00,
2013-12-11 12:56:00,53.3,33.5,30.16,West,270,0.7,2.5,47,0.00,,,0.00,WUHU216HW,2013-12-11 20:56:00,
2013-12-11 13:01:00,53.6,33.8,30.16,WNW,293,2.5,3.4,47,0.00,,,0.00,WUHU216HW,2013-12-11 21:01:00,
2013-12-11 13:06:00,53.6,33.2,30.16,WNW,293,0.4,3.4,46,0.00,,,0.00,WUHU216HW,2013-12-11 21:06:00,
2013-12-11 13:11:00,54.2,33.8,30.16,ENE,68,0.4,3.1,46,0.00,,,0.00,WUHU216HW,2013-12-11 21:11:00,
2013-12-11 13:16:00,54.5,33.5,30.16,SSW,203,0.4,3.4,45,0.00,,,0.00,WUHU216HW,2013-12-11 21:16:00,
2013-12-11 13:21:00,54.7,33.7,30.16,WSW,248,1.1,3.4,45,0.00,,,0.00,WUHU216HW,2013-12-11 21:21:00,
2013-12-11 13:26:00,55.1,32.9,30.15,WSW,248,4.7,4.7,43,0.00,,,0.00,WUHU216HW,2013-12-11 21:26:00,
2013-12-11 13:31:00,55.4,30.8,30.15,South,180,3.1,6.3,39,0.00,,,0.00,WUHU216HW,2013-12-11 21:31:00,
2013-12-11 13:36:00,55.8,31.2,30.15,SW,225,3.6,6.3,39,0.00,,,0.00,WUHU216HW,2013-12-11 21:36:00,
2013-12-11 13:41:00,55.8,30.4,30.15,South,180,3.4,6.3,38,0.00,,,0.00,WUHU216HW,2013-12-11 21:41:00,
2013-12-11 13:46:00,56.0,29.9,30.15,SSW,203,3.1,6.3,37,0.00,,,0.00,WUHU216HW,2013-12-11 21:46:00,
2013-12-11 13:51:00,56.0,29.2,30.14,SSW,203,2.0,5.1,36,0.00,,,0.00,WUHU216HW,2013-12-11 21:51:00,
2013-12-11 13:56:00,56.2,28.6,30.14,SSE,158,4.5,5.1,35,0.00,,,0.00,WUHU216HW,2013-12-11 21:56:00,
2013-12-11 14:01:00,56.2,27.9,30.14,SE,135,3.8,5.8,34,0.00,,,0.00,WUHU216HW,2013-12-11 22:01:00,
2013-12-11 14:06:00,56.3,29.5,30.14,South,180,3.8,5.8,36,0.00,,,0.00,WUHU216HW,2013-12-11 22:06:00,
2013-12-11 14:11:00,56.5,30.3,30.14,SE,135,4.0,4.7,37,0.00,,,0.00,WUHU216HW,2013-12-11 22:11:00,
2013-12-11 14:16:00,56.5,29.0,30.14,ESE,113,2.2,5.4,35,0.00,,,0.00,WUHU216HW,2013-12-11 22:16:00,
2013-12-11 14:21:00,56.7,29.8,30.14,South,180,2.5,5.6,36,0.00,,,0.00,WUHU216HW,2013-12-11 22:21:00,
2013-12-11 14:26:00,56.9,30.0,30.13,South,180,2.9,5.6,36,0.00,,,0.00,WUHU216HW,2013-12-11 22:26:00,
2013-12-11 14:31:00,56.9,30.0,30.13,SSW,203,2.5,4.7,36,0.00,,,0.00,WUHU216HW,2013-12-11 22:31:00,
2013-12-11 14:36:00,57.1,30.2,30.13,WSW,248,5.4,5.4,36,0.00,,,0.00,WUHU216HW,2013-12-11 22:36:00,
2013-12-11 14:41:00,57.1,30.2,30.13,South,180,0.4,5.4,36,0.00,,,0.00,WUHU216HW,2013-12-11 22:41:00,
2013-12-11 14:46:00,57.2,29.6,30.13,WSW,248,3.1,4.0,35,0.00,,,0.00,WUHU216HW,2013-12-11 22:46:00,
2013-12-11 14:51:00,57.2,30.3,30.13,WSW,248,3.8,4.0,36,0.00,,,0.00,WUHU216HW,2013-12-11 22:51:00,
2013-12-11 14:56:00,57.2,28.2,30.13,South,180,5.4,5.4,33,0.00,,,0.00,WUHU216HW,2013-12-11 22:56:00,
2013-12-11 15:01:00,57.2,28.2,30.13,South,180,3.1,5.4,33,0.00,,,0.00,WUHU216HW,2013-12-11 23:01:00,
2013-12-11 15:06:00,57.2,27.6,30.13,SW,225,3.6,4.5,32,0.00,,,0.00,WUHU216HW,2013-12-11 23:06:00,
2013-12-11 15:11:00,56.9,27.9,30.13,West,270,2.9,4.5,33,0.00,,,0.00,WUHU216HW,2013-12-11 23:11:00,
2013-12-11 15:16:00,56.5,28.3,30.14,West,270,2.2,4.3,34,0.00,,,0.00,WUHU216HW,2013-12-11 23:16:00,
2013-12-11 15:21:00,56.5,29.0,30.14,SW,225,1.8,2.9,35,0.00,,,0.00,WUHU216HW,2013-12-11 23:21:00,
2013-12-11 15:26:00,56.5,28.3,30.14,NNE,23,0.9,2.5,34,0.00,,,0.00,WUHU216HW,2013-12-11 23:26:00,
2013-12-11 15:31:00,56.3,26.7,30.13,NNE,23,2.5,3.6,32,0.00,,,0.00,WUHU216HW,2013-12-11 23:31:00,
2013-12-11 15:36:00,56.2,27.3,30.14,WSW,248,0.4,3.6,33,0.00,,,0.00,WUHU216HW,2013-12-11 23:36:00,
2013-12-11 15:41:00,55.8,26.9,30.14,ESE,113,3.1,3.1,33,0.00,,,0.00,WUHU216HW,2013-12-11 23:41:00,
2013-12-11 15:46:00,55.6,26.7,30.14,South,180,2.2,3.1,33,0.00,,,0.00,WUHU216HW,2013-12-11 23:46:00,
2013-12-11 15:51:00,55.3,26.5,30.14,South,180,4.5,4.5,33,0.00,,,0.00,WUHU216HW,2013-12-11 23:51:00,
2013-12-11 15:56:00,54.9,26.8,30.14,SW,225,1.1,5.8,34,0.00,,,0.00,WUHU216HW,2013-12-11 23:56:00,
2013-12-11 16:01:00,54.7,26.6,30.14,SSW,203,0.7,5.8,34,0.00,,,0.00,WUHU216HW,2013-12-12 00:01:00,
2013-12-11 16:06:00,54.4,26.4,30.14,SSE,158,2.9,2.9,34,0.00,,,0.00,WUHU216HW,2013-12-12 00:06:00,
2013-12-11 16:11:00,54.0,27.5,30.14,SSE,158,1.1,2.9,36,0.00,,,0.00,WUHU216HW,2013-12-12 00:11:00,
2013-12-11 16:16:00,53.6,27.8,30.14,SSW,203,0.9,1.1,37,0.00,,,0.00,WUHU216HW,2013-12-12 00:16:00,
2013-12-11 16:21:00,53.3,28.2,30.14,SSW,203,1.8,1.8,38,0.00,,,0.00,WUHU216HW,2013-12-12 00:21:00,
2013-12-11 16:26:00,52.7,27.7,30.14,WSW,248,1.1,1.8,38,0.00,,,0.00,WUHU216HW,2013-12-12 00:26:00,
2013-12-11 16:31:00,52.2,27.9,30.14,SSW,203,0.2,1.3,39,0.00,,,0.00,WUHU216HW,2013-12-12 00:31:00,
2013-12-11 16:36:00,51.8,28.3,30.15,SW,225,0.0,1.3,40,0.00,,,0.00,WUHU216HW,2013-12-12 00:36:00,
2013-12-11 16:41:00,51.3,27.8,30.15,SW,225,0.2,1.1,40,0.00,,,0.00,WUHU216HW,2013-12-12 00:41:00,
2013-12-11 16:46:00,50.8,27.8,30.15,West,270,0.0,0.4,41,0.00,,,0.00,WUHU216HW,2013-12-12 00:46:00,
2013-12-11 16:51:00,50.2,27.9,30.15,West,270,0.0,0.4,42,0.00,,,0.00,WUHU216HW,2013-12-12 00:51:00,
2013-12-11 16:56:00,49.7,27.5,30.15,West,270,0.0,0.0,42,0.00,,,0.00,WUHU216HW,2013-12-12 00:56:00,
2013-12-11 17:01:00,49.1,27.5,30.15,West,270,0.0,0.0,43,0.00,,,0.00,WUHU216HW,2013-12-12 01:01:00,
2013-12-11 17:06:00,48.6,27.0,30.15,West,270,0.0,0.0,43,0.00,,,0.00,WUHU216HW,2013-12-12 01:06:00,
2013-12-11 17:11:00,48.1,27.0,30.15,West,270,0.0,0.0,44,0.00,,,0.00,WUHU216HW,2013-12-12 01:11:00,
2013-12-11 17:16:00,47.5,27.1,30.15,West,270,0.0,0.0,45,0.00,,,0.00,WUHU216HW,2013-12-12 01:16:00,
2013-12-11 17:21:00,47.0,27.1,30.15,NNW,338,0.0,0.0,46,0.00,,,0.00,WUHU216HW,2013-12-12 01:21:00,
2013-12-11 17:26:00,46.4,27.2,30.15,NNW,338,0.0,0.0,47,0.00,,,0.00,WUHU216HW,2013-12-12 01:26:00,
2013-12-11 17:31:00,46.1,27.4,30.15,NNW,338,0.0,0.0,48,0.00,,,0.00,WUHU216HW,2013-12-12 01:31:00,
2013-12-11 17:36:00,45.7,27.6,30.15,NE,45,0.0,0.0,49,0.00,,,0.00,WUHU216HW,2013-12-12 01:36:00,
2013-12-11 17:41:00,45.0,27.6,30.15,NE,45,0.0,0.0,50,0.00,,,0.00,WUHU216HW,2013-12-12 01:41:00,
2013-12-11 17:46:00,44.6,27.2,30.15,NE,45,0.0,0.2,50,0.00,,,0.00,WUHU216HW,2013-12-12 01:46:00,
2013-12-11 17:51:00,44.3,27.3,30.15,NE,45,0.0,0.2,51,0.00,,,0.00,WUHU216HW,2013-12-12 01:51:00,
2013-12-11 17:56:00,43.7,27.3,30.15,NE,45,0.0,0.2,52,0.00,,,0.00,WUHU216HW,2013-12-12 01:56:00,
2013-12-11 18:01:00,43.4,27.4,30.15,NE,45,0.0,0.2,53,0.00,,,0.00,WUHU216HW,2013-12-12 02:01:00,
2013-12-11 18:06:00,42.8,26.8,30.15,NE,45,0.0,0.2,53,0.00,,,0.00,WUHU216HW,2013-12-12 02:06:00,
2013-12-11 18:11:00,42.7,26.6,30.15,NE,45,0.0,0.0,53,0.00,,,0.00,WUHU216HW,2013-12-12 02:11:00,
2013-12-11 18:16:00,42.1,26.7,30.16,NE,45,0.0,0.2,54,0.00,,,0.00,WUHU216HW,2013-12-12 02:16:00,
2013-12-11 18:21:00,41.9,26.5,30.16,ENE,68,0.2,0.2,54,0.00,,,0.00,WUHU216HW,2013-12-12 02:21:00,
2013-12-11 18:26:00,41.8,26.7,30.16,ENE,68,0.0,0.2,55,0.00,,,0.00,WUHU216HW,2013-12-12 02:26:00,
2013-12-11 18:31:00,41.4,26.8,30.16,ENE,68,0.0,0.2,56,0.00,,,0.00,WUHU216HW,2013-12-12 02:31:00,
2013-12-11 18:36:00,41.0,26.5,30.16,ENE,68,0.0,0.2,56,0.00,,,0.00,WUHU216HW,2013-12-12 02:36:00,
2013-12-11 18:41:00,40.7,26.6,30.16,ENE,68,0.0,0.0,57,0.00,,,0.00,WUHU216HW,2013-12-12 02:41:00,
2013-12-11 18:46:00,40.3,26.2,30.16,ENE,68,0.0,0.0,57,0.00,,,0.00,WUHU216HW,2013-12-12 02:46:00,
2013-12-11 18:51:00,40.1,26.5,30.16,ENE,68,0.0,0.0,58,0.00,,,0.00,WUHU216HW,2013-12-12 02:51:00,
2013-12-11 18:56:00,39.8,26.6,30.16,ENE,68,0.0,0.0,59,0.00,,,0.00,WUHU216HW,2013-12-12 02:56:00,
2013-12-11 19:01:00,39.4,26.6,30.16,NE,45,0.0,0.0,60,0.00,,,0.00,WUHU216HW,2013-12-12 03:01:00,
2013-12-11 19:06:00,39.2,26.8,30.16,NE,45,0.0,0.0,61,0.00,,,0.00,WUHU216HW,2013-12-12 03:06:00,
2013-12-11 19:11:00,39.1,27.1,30.16,NE,45,0.0,0.0,62,0.00,,,0.00,WUHU216HW,2013-12-12 03:11:00,
2013-12-11 19:16:00,38.9,26.9,30.16,NE,45,0.0,0.0,62,0.00,,,0.00,WUHU216HW,2013-12-12 03:16:00,
2013-12-11 19:21:00,38.5,26.6,30.16,NE,45,0.0,0.0,62,0.00,,,0.00,WUHU216HW,2013-12-12 03:21:00,
2013-12-11 19:26:00,38.3,26.8,30.16,NE,45,0.2,0.4,63,0.00,,,0.00,WUHU216HW,2013-12-12 03:26:00,
2013-12-11 19:31:00,38.2,26.7,30.16,NE,45,0.0,0.4,63,0.00,,,0.00,WUHU216HW,2013-12-12 03:31:00,
2013-12-11 19:36:00,37.8,26.3,30.16,NE,45,0.2,0.2,63,0.00,,,0.00,WUHU216HW,2013-12-12 03:36:00,
2013-12-11 19:41:00,37.6,26.1,30.16,ENE,68,0.0,0.2,63,0.00,,,0.00,WUHU216HW,2013-12-12 03:41:00,
2013-12-11 19:46:00,37.4,26.0,30.17,ENE,68,0.0,0.0,63,0.00,,,0.00,WUHU216HW,2013-12-12 03:46:00,
2013-12-11 19:51:00,37.3,26.2,30.17,ENE,68,0.0,0.0,64,0.00,,,0.00,WUHU216HW,2013-12-12 03:51:00,
2013-12-11 19:56:00,37.1,26.0,30.17,ENE,68,0.0,0.0,64,0.00,,,0.00,WUHU216HW,2013-12-12 03:56:00,
2013-12-11 20:01:00,36.7,25.7,30.17,ENE,68,0.0,0.0,64,0.00,,,0.00,WUHU216HW,2013-12-12 04:01:00,
2013-12-11 20:05:00,36.5,25.9,30.17,ENE,68,0.0,0.0,65,0.00,,,0.00,WUHU216HW,2013-12-12 04:05:00,
2013-12-11 20:11:00,36.4,25.8,30.17,ENE,68,0.0,0.0,65,0.00,,,0.00,WUHU216HW,2013-12-12 04:11:00,
2013-12-11 20:15:00,36.2,25.9,30.17,ENE,68,0.0,0.4,66,0.00,,,0.00,WUHU216HW,2013-12-12 04:15:00,
2013-12-11 20:20:00,36.0,26.1,30.17,ENE,68,0.0,0.4,67,0.00,,,0.00,WUHU216HW,2013-12-12 04:20:00,
2013-12-11 20:25:00,35.8,25.9,30.16,ENE,68,0.0,0.0,67,0.00,,,0.00,WUHU216HW,2013-12-12 04:25:00,
2013-12-11 20:30:00,35.6,25.7,30.17,ENE,68,0.0,0.0,67,0.00,,,0.00,WUHU216HW,2013-12-12 04:30:00,
2013-12-11 20:35:00,35.5,25.9,30.17,ENE,68,0.0,0.0,68,0.00,,,0.00,WUHU216HW,2013-12-12 04:35:00,
2013-12-11 20:40:00,35.3,25.7,30.17,NE,45,0.0,0.0,68,0.00,,,0.00,WUHU216HW,2013-12-12 04:40:00,
2013-12-11 20:45:00,35.1,25.6,30.17,NE,45,0.0,0.0,68,0.00,,,0.00,WUHU216HW,2013-12-12 04:45:00,
2013-12-11 20:51:00,34.9,25.4,30.17,NE,45,0.0,0.0,68,0.00,,,0.00,WUHU216HW,2013-12-12 04:51:00,
2013-12-11 20:56:00,34.7,25.6,30.17,NNE,23,0.0,0.0,69,0.00,,,0.00,WUHU216HW,2013-12-12 04:56:00,
2013-12-11 21:01:00,34.6,25.7,30.17,East,90,0.0,0.0,70,0.00,,,0.00,WUHU216HW,2013-12-12 05:01:00,
2013-12-11 21:02:00,34.6,25.7,30.17,East,90,0.2,0.2,70,0.00,,,0.00,WUHU216HW,2013-12-12 05:02:00,
2013-12-11 21:07:00,34.4,25.6,30.17,East,90,0.0,0.2,70,0.00,,,0.00,WUHU216HW,2013-12-12 05:07:00,
2013-12-11 21:12:00,34.2,25.4,30.17,East,90,0.0,0.0,70,0.00,,,0.00,WUHU216HW,2013-12-12 05:12:00,
2013-12-11 21:17:00,34.2,25.4,30.17,East,90,0.0,0.0,70,0.00,,,0.00,WUHU216HW,2013-12-12 05:17:00,
2013-12-11 21:22:00,34.2,25.4,30.18,East,90,0.0,0.0,70,0.00,,,0.00,WUHU216HW,2013-12-12 05:22:00,
2013-12-11 21:27:00,33.8,25.0,30.18,East,90,0.2,0.2,70,0.00,,,0.00,WUHU216HW,2013-12-12 05:27:00,
2013-12-11 21:32:00,33.8,25.0,30.18,East,90,0.0,0.2,70,0.00,,,0.00,WUHU216HW,2013-12-12 05:32:00,
2013-12-11 21:37:00,33.7,24.8,30.17,East,90,0.0,0.0,70,0.00,,,0.00,WUHU216HW,2013-12-12 05:37:00,
2013-12-11 21:42:00,33.5,25.0,30.17,East,90,0.0,0.0,71,0.00,,,0.00,WUHU216HW,2013-12-12 05:42:00,
2013-12-11 21:47:00,33.5,25.0,30.17,East,90,0.0,0.0,71,0.00,,,0.00,WUHU216HW,2013-12-12 05:47:00,
2013-12-11 21:52:00,33.3,24.8,30.17,NE,45,0.0,0.0,71,0.00,,,0.00,WUHU216HW,2013-12-12 05:52:00,
2013-12-11 21:57:00,33.1,24.7,30.17,NNE,23,0.0,0.0,71,0.00,,,0.00,WUHU216HW,2013-12-12 05:57:00,
2013-12-11 22:02:00,32.9,24.8,30.17,NE,45,0.0,0.0,72,0.00,,,0.00,WUHU216HW,2013-12-12 06:02:00,
2013-12-11 22:07:00,32.9,24.8,30.17,NNW,338,0.0,0.0,72,0.00,,,0.00,WUHU216HW,2013-12-12 06:07:00,
2013-12-11 22:12:00,32.8,25.0,30.18,North,0,0.0,0.0,73,0.00,,,0.00,WUHU216HW,2013-12-12 06:12:00,
2013-12-11 22:17:00,32.8,25.0,30.17,North,0,0.0,0.0,73,0.00,,,0.00,WUHU216HW,2013-12-12 06:17:00,
2013-12-11 22:22:00,32.6,24.8,30.17,North,0,0.0,0.0,73,0.00,,,0.00,WUHU216HW,2013-12-12 06:22:00,
2013-12-11 22:27:00,32.6,24.8,30.17,North,0,0.0,0.0,73,0.00,,,0.00,WUHU216HW,2013-12-12 06:27:00,
2013-12-11 22:32:00,32.4,24.7,30.17,NNE,23,0.0,0.0,73,0.00,,,0.00,WUHU216HW,2013-12-12 06:32:00,
2013-12-11 22:37:00,32.4,25.0,30.17,NNE,23,0.0,0.0,74,0.00,,,0.00,WUHU216HW,2013-12-12 06:37:00,
2013-12-11 22:42:00,32.2,24.8,30.18,NNE,23,0.0,0.0,74,0.00,,,0.00,WUHU216HW,2013-12-12 06:42:00,
2013-12-11 22:47:00,32.2,24.8,30.17,NNE,23,0.0,0.0,74,0.00,,,0.00,WUHU216HW,2013-12-12 06:47:00,
2013-12-11 22:52:00,32.0,24.7,30.18,NNE,23,0.0,0.0,74,0.00,,,0.00,WUHU216HW,2013-12-12 06:52:00,
2013-12-11 22:57:00,32.0,25.0,30.18,NNE,23,0.0,0.0,75,0.00,,,0.00,WUHU216HW,2013-12-12 06:57:00,
2013-12-11 23:02:00,31.9,24.8,30.18,NNE,23,0.0,0.0,75,0.00,,,0.00,WUHU216HW,2013-12-12 07:02:00,
2013-12-11 23:07:00,31.9,24.8,30.18,NNE,23,0.0,0.0,75,0.00,,,0.00,WUHU216HW,2013-12-12 07:07:00,
2013-12-11 23:12:00,31.7,25.0,30.17,NNE,23,0.0,0.0,76,0.00,,,0.00,WUHU216HW,2013-12-12 07:12:00,
2013-12-11 23:17:00,31.7,25.0,30.17,NE,45,0.0,0.2,76,0.00,,,0.00,WUHU216HW,2013-12-12 07:17:00,
2013-12-11 23:22:00,31.7,25.0,30.18,NE,45,0.0,0.2,76,0.00,,,0.00,WUHU216HW,2013-12-12 07:22:00,
2013-12-11 23:27:00,31.5,24.9,30.18,NE,45,0.0,0.0,76,0.00,,,0.00,WUHU216HW,2013-12-12 07:27:00,
2013-12-11 23:32:00,31.5,24.9,30.18,NE,45,0.0,0.0,76,0.00,,,0.00,WUHU216HW,2013-12-12 07:32:00,
2013-12-11 23:37:00,31.3,24.9,30.18,NE,45,0.0,0.2,77,0.00,,,0.00,WUHU216HW,2013-12-12 07:37:00,
2013-12-11 23:42:00,31.3,24.9,30.18,NE,45,0.0,0.2,77,0.00,,,0.00,WUHU216HW,2013-12-12 07:42:00,
2013-12-11 23:47:00,31.3,24.9,30.18,NE,45,0.2,0.2,77,0.00,,,0.00,WUHU216HW,2013-12-12 07:47:00,
2013-12-11 23:52:00,31.1,24.8,30.18,NE,45,0.0,0.2,77,0.00,,,0.00,WUHU216HW,2013-12-12 07:52:00,
2013-12-11 23:57:00,31.1,25.1,30.17,NE,45,0.0,0.0,78,0.00,,,0.00,WUHU216HW,2013-12-12 07:57:00,